Regional Weather Roundup
Issued by NWS

Home | Current Version | Previous Version | Text Only | Print | Product List | Glossary Off
Versions: 1 2 3 4 5 6 7 8 9 10 11 12 13 14 15 16 17 18 19 20 21 22 23 24 25 26 27 28 29 30 31 32 33 34 35 36 37 38 39 40 41 42 43 44 45 46 47 48 49 50

000
ASUS43 KLOT 232110
RWRIL

ILLINOIS REGIONAL WEATHER ROUNDUP
NATIONAL WEATHER SERVICE CHICAGO/ROMEOVILLE IL
400 PM CDT TUE SEP 23 2014

NOTE: "FAIR" INDICATES FEW OR NO CLOUDS BELOW 12,000 FEET WITH NO
SIGNIFICANT WEATHER AND/OR OBSTRUCTIONS TO VISIBILITY.

* THESE STATIONS ARE NOT UNDER NWS QUALITY CONTROL. THEY ALSO MAY NOT
  REPORT WEATHER SUCH AS PRECIPITATION OR FOG.

ILZ001-002-007-009-015-016-024-232200-
NORTHWEST ILLINOIS

CITY           SKY/WX    TMP DP  RH WIND       PRES   REMARKS
MOLINE         SUNNY     74  44  34 S7        30.24F
STERLING*      SUNNY     75  46  35 SW5       30.26F
SAVANNA*       SUNNY     75  45  33 SW5       30.25F
$$

ILZ003-004-008-010-011-017-018-232200-
NORTH CENTRAL ILLINOIS

CITY           SKY/WX    TMP DP  RH WIND       PRES   REMARKS
ROCKFORD       MOSUNNY   74  46  36 S5        30.28F
DE KALB*       SUNNY     71  48  45 S5        30.29F
PERU*          SUNNY     75  45  34 SE8       30.27F
$$

ILZ005-006-012>014-019>023-232200-
NORTHEAST ILLINOIS

CITY           SKY/WX    TMP DP  RH WIND       PRES   REMARKS
CHICAGO-OHARE  MOSUNNY   72  46  39 SW3       30.28F
CHICAGO-MIDWAY MOSUNNY   74  47  38 CALM      30.28F
AURORA         SUNNY     74  48  39 SE6       30.28F
LANSING*       SUNNY     71  47  42 CALM      30.29F
JOLIET*        SUNNY     73  47  40 SE3       30.29F
WAUKEGAN       SUNNY     67  51  56 SE12      30.28F
DUPAGE AIRPORT SUNNY     74  48  39 CALM      30.28F
KANKAKEE*      SUNNY     73  48  42 E3        30.28F
WHEELING       SUNNY     74  47  38 SE5       30.30F
ROMEOVILLE*    SUNNY     72  46  40 CALM      30.28F
NORTHERLY ISL    N/A     66  54  65 E9          N/A
$$

LMZ740>746-232200-
SOUTHERN LAKE MICHIGAN

STATION/POSITION SKY/WX   TEMP    WIND        PRES    VSBY  WAVE
                          AIR SEA DIR/SP/G                  HT/PER
                          (F)     (DEG/KT/KT) (MB)    (MI)  (FT/S)
SOUTHERN BUOY              62 61  180/  8/ 10 1026.3F         1/ 3
WAUKEGAN HARBOR            66     180/  7/  8   N/A
BURNHAM HARBOR             66      90/  9/ 10   N/A
CALUMET HARBOR             66      60/  9/ 11 1024.5F
MICHIGAN CITY 6N           64 65   30/  6/  8   N/A           1
ST. JOSEPH                 64 65  340/  4/  6   N/A           1/ 3
$$

ILZ025>027-034>036-040-047-049-050-058-095>099-232200-
WEST-CENTRAL ILLINOIS

CITY           SKY/WX    TMP DP  RH WIND       PRES   REMARKS
QUINCY         PTSUNNY   71  49  45 SE8       30.24F
GALESBURG*     SUNNY    N/A N/A N/A E6        30.25F
MACOMB*        MOSUNNY   75  43  31 S9        30.27F
JACKSONVILLE*  SUNNY     78  46  32 SE8       30.25F
PITTSFIELD*    MOSUNNY   77  45  31 SE8       30.25F
$$

ILZ028>032-037-038-041>044-048-051>054-059>061-232200-
CENTRAL ILLINOIS

CITY           SKY/WX    TMP DP  RH WIND       PRES   REMARKS
PONTIAC        SUNNY     77  45  31 CALM      30.27F
BLOOMINGTON    SUNNY     74  49  41 S6        30.28F
DECATUR        SUNNY     75  45  34 SE8       30.27F
PEORIA         SUNNY     76  47  35 SE7       30.26F
LACON*         SUNNY     74  46  36 CALM      30.25F
LINCOLN*       SUNNY     77  44  31 CALM      30.23F
SPRINGFIELD    SUNNY     75  48  38 SE5       30.25F
TAYLORVILLE    SUNNY     73  45  35 SE6       30.26F
$$

ILZ033-039-045-046-055>057-062-063-232200-
EAST-CENTRAL ILLINOIS

CITY           SKY/WX    TMP DP  RH WIND       PRES   REMARKS
CHAMPAIGN      SUNNY     75  47  36 VRB7      30.27F
DANVILLE*      SUNNY     74  47  39 E6        30.25F HAZE
RANTOUL*       SUNNY     76  40  27 E6        30.28F
MATTOON        SUNNY     72  47  40 E8        30.26F
PARIS*         SUNNY     73  49  42 SE6       30.28F
$$

ILZ079-100>102-232200-
SOUTHWEST ILLINOIS

CITY           SKY/WX    TMP DP  RH WIND       PRES   REMARKS
BELLEVILLE     SUNNY     75  48  37 NE5       30.24F
CAHOKIA*       SUNNY     75  49  39 SE7       30.23F
SPARTA*        SUNNY     74  46  37 E6        30.25F
$$

ILZ064>066-069>071-074>076-080>082-084>086-088>090-092>094-232200-
SOUTH-CENTRAL ILLINOIS

CITY           SKY/WX    TMP DP  RH WIND       PRES   REMARKS
CARBONDALE     MOSUNNY   75  47  36 VRB7      30.24F
CAIRO*         SUNNY     77  47  34 E6        30.22F
EFFINGHAM*     SUNNY     74  41  30 SE5       30.26F
MARION         MOSUNNY   77  46  33 NE7       30.25F
MT. VERNON     SUNNY     73  48  40 NE7       30.26F
CENTRALIA*     SUNNY     74  46  36 E7        30.25F
SALEM*         SUNNY     75  49  40 E5        30.26F
METROPOLIS*    SUNNY     76  48  36 E6        30.21F
$$

ILZ067-068-072-073-078-083-087-091-232200-
SOUTHEAST ILLINOIS

CITY           SKY/WX    TMP DP  RH WIND       PRES   REMARKS
LAWRENCEVILLE  SUNNY     75  46  35 E8        30.26F
FLORA*         SUNNY     74  45  35 E7        30.26F HAZE
FAIRFIELD*     SUNNY    N/A N/A N/A NE8       30.25F
HARRISBURG*    SUNNY     74  44  33 NE5       30.25F
ROBINSON*      SUNNY     74  50  43 NE8       30.28F
CARMI*         SUNNY     77  47  34 NE7       30.24F
$$

ABBREVIATIONS USED IN REMARKS
   TC - TEMPERATURE IN CELSIUS
  WCI - WIND CHILL INDEX
   HX - HEAT INDEX
  VSB - VISIBILITY
$$



USA.gov is the U.S. government's official web portal to all federal, state and local government web resources and services.